Content
SEND FEEDBACK

Daily
Averages
Monthly
Summary
United States of America

SANTA MONICA PIER, CALIFORNIA


Home > North America > United States > California
Elevation: 49 feet     Latitude: 34 01N     Longitude: 118 30W

WEATHER
 
SELECT A DAY
Number of Records: 173,739;   Date Range: 1/1/95 - 10/20/14
 
SHARE

PRINT THIS DATA

[ ← Previous Day ]
WEATHER ALMANAC - JANUARY 31, 2013
[ Next Day → ]
[ °C ]   °F
Weather ElementAverageHighLow
Temperature57.2 °F71.1 °F (11:51 am)46 °F (6:51 am)
Dewpoint44.6 °F52 °F (4:51 pm)39 °F (12:51 pm)
Humidity65.8 %86 % (10:51 pm)32 % (12:51 pm)
Barometer30.16 in30.23 in (1:51 am)30.10 in (3:51 pm)
Wind Speed3.3 mph9.2 mph (2:51 pm)
Weather ElementAverage
Visibility10 mi
Wind DirectionENE (81.3 °)

Weather ElementTotal
Precipitation---
Heating Degree Days6.5 (Base 65)
Growing Degree Days8.6 (Base 50)
Averaged from 23 records on January 31, 2013
WEATHER CONDITIONS BREAKOUT
WIND DIRECTION BREAKOUT
WEATHER BY HOUR - JANUARY 31, 2013
[ °C ]   °F
Local TimeTemperatureDewpointHumidityBarometerVisibilityWind DirectionWind SpeedGust SpeedPrecipitationEventsConditions
1:51 AM48.9 °F43.0 °F80 %30.23 in10.0 miEast (80°)3.5 mphClear
2:51 AM46.9 °F39.9 °F77 %30.21 in10.0 miNNE (30°)4.6 mphClear
3:51 AM48.0 °F42.1 °F80 %30.19 in10.0 miNE (50°)3.5 mphClear
4:51 AM48.0 °F41.0 °F77 %30.18 in10.0 miNNE (30°)3.5 mphClear
5:51 AM48.0 °F39.9 °F74 %30.18 in10.0 miCalmClear
6:51 AM46.0 °F39.9 °F79 %30.19 in10.0 miNNE (20°)3.5 mphClear
7:51 AM51.1 °F41.0 °F68 %30.20 in10.0 miCalmClear
8:51 AM59.0 °F43.0 °F55 %30.21 in10.0 miCalmClear
9:51 AM64.0 °F39.9 °F41 %30.23 in10.0 miCalmClear
10:51 AM68.0 °F39.9 °F36 %30.21 in10.0 miCalmClear
11:51 AM71.1 °F42.1 °F35 %30.19 in10.0 miSSW (200°)4.6 mphClear
12:51 PM70.0 °F39.0 °F32 %30.15 in10.0 miSW (220°)6.9 mphClear
1:51 PM66.0 °F41.0 °F40 %30.12 in10.0 miWSW (250°)6.9 mphClear
2:51 PM64.0 °F46.0 °F52 %30.12 in10.0 miWSW (250°)9.2 mphClear
3:51 PM64.0 °F48.0 °F56 %30.10 in10.0 miSSW (210°)8.1 mphClear
4:51 PM61.0 °F52.0 °F72 %30.10 in10.0 miSSW (210°)6.9 mphClear
5:51 PM59.0 °F52.0 °F78 %30.11 in10.0 miSouth (170°)3.5 mphClear
6:51 PM57.9 °F51.1 °F78 %30.11 in10.0 miCalmClear
7:51 PM55.9 °F50.0 °F80 %30.12 in10.0 miCalmClear
8:51 PM55.9 °F50.0 °F80 %30.12 in10.0 miCalmClear
9:51 PM55.0 °F48.9 °F80 %30.12 in10.0 miNNE (30°)3.5 mphClear
10:51 PM53.1 °F48.9 °F86 %30.12 in10.0 miENE (70°)3.5 mphClear
11:51 PM54.0 °F46.9 °F77 %30.12 in10.0 miNE (50°)3.5 mphClear
Hourly data recorded from KSMO, located miles away from Santa Monica Pier, California







STORIES FROM OUR PARTNERS